Terminal Aerodrome Forecast
Issued by NWS Bismarck, ND

Home | Current Version | Previous Version | Graphics & Text | Print | Product List | Glossary On
Versions: 1 2 3 4 5 6 7 8 9 10 11 12 13 14 15 16 17 18 19 20 21 22 23
000
FTUS43 KBIS 252000 AAA
TAFBIS
TAF AMD
KBIS 252017Z 2520/2618 31015G19KT P6SM SCT030 OVC040
      TEMPO 2520/2522 BKN030 OVC040
     FM260000 31008KT P6SM SCT035
     FM260800 25004KT P6SM SCT040
     FM261600 20007KT P6SM SCT030 BKN140=

USA.gov is the U.S. government's official web portal to all federal, state and local government web resources and services.